| time (UTC) | temp F | wind direction | speed MPH | gust MPH | rain 1hr in | rain 24hr in | rain mn in | humidity % | barometer mb |
| 20260502161100 | 59 | 240 | 2.0 | 7.0 | 0.00 | 0.00 | 0.00 | 56 | 1011.7 |
| 20260502160601 | 59 | 0 | 1.0 | 7.0 | 0.00 | 0.00 | 0.00 | 56 | 1011.5 |
| 20260502152101 | 57 | 148 | 1.0 | 5.0 | 0.00 | 0.00 | 0.00 | 64 | 1012.4 |
| 20260502151622 | 58 | 0 | 1.0 | 5.0 | 0.00 | 0.00 | 0.00 | 65 | 1012.2 |
| 20260502151101 | 57 | 190 | 1.0 | 5.0 | 0.00 | 0.00 | 0.00 | 66 | 1012.2 |
| 20260502150558 | 57 | 270 | 1.0 | 5.0 | 0.00 | 0.00 | 0.00 | 66 | 1012.3 |
| 20260502150108 | 57 | 0 | 0.0 | 2.0 | 0.00 | 0.00 | 0.00 | 67 | 1012.5 |
| 20260502130601 | 52 | 213 | 0.0 | 3.0 | 0.00 | 0.00 | 0.00 | 76 | 1013.0 |
| 20260502123601 | 51 | 227 | 1.0 | 8.0 | 0.00 | 0.00 | 0.00 | 75 | 1012.8 |
| 20260502123105 | 52 | 226 | 0.0 | 5.0 | 0.00 | 0.00 | 0.00 | 75 | 1012.8 |
| 20260502122604 | 52 | 186 | 1.0 | 5.0 | 0.00 | 0.00 | 0.00 | 75 | 1012.9 |
| 20260502122101 | 51 | 211 | 2.0 | 5.0 | 0.00 | 0.00 | 0.00 | 76 | 1012.8 |
| 20260502121605 | 51 | 189 | 1.0 | 5.0 | 0.00 | 0.00 | 0.00 | 76 | 1012.7 |
| 20260502121100 | 51 | 0 | 0.0 | 6.0 | 0.00 | 0.00 | 0.00 | 76 | 1012.7 |
| 20260502120600 | 51 | 0 | 1.0 | 6.0 | 0.00 | 0.00 | 0.00 | 76 | 1012.5 |
| 20260502115600 | 51 | 237 | 0.0 | 4.0 | 0.00 | 0.00 | 0.00 | 76 | 1012.5 |
| 20260502115100 | 50 | 347 | 1.0 | 4.0 | 0.00 | 0.00 | 0.00 | 77 | 1012.4 |
| 20260502114603 | 50 | 188 | 0.0 | 4.0 | 0.00 | 0.00 | 0.00 | 77 | 1012.4 |
| 20260502114100 | 49 | 0 | 0.0 | 3.0 | 0.00 | 0.00 | 0.00 | 78 | 1012.4 |
| 20260502113603 | 49 | 188 | 1.0 | 3.0 | 0.00 | 0.00 | 0.00 | 78 | 1012.3 |
| 20260502113059 | 49 | 186 | 0.0 | 3.0 | 0.00 | 0.00 | 0.00 | 78 | 1012.4 |
| 20260502112600 | 49 | 0 | 0.0 | 3.0 | 0.00 | 0.00 | 0.00 | 78 | 1012.4 |
| 20260502112100 | 48 | 194 | 0.0 | 3.0 | 0.00 | 0.00 | 0.00 | 78 | 1012.5 |
| 20260502111606 | 48 | 0 | 0.0 | 4.0 | 0.00 | 0.00 | 0.00 | 78 | 1012.5 |
| 20260502111100 | 48 | 0 | 0.0 | 5.0 | 0.00 | 0.00 | 0.00 | 78 | 1012.5 |
| 20260502110600 | 48 | 0 | 0.0 | 5.0 | 0.00 | 0.00 | 0.00 | 78 | 1012.6 |
| 20260502110104 | 48 | 0 | 0.0 | 2.0 | 0.00 | 0.00 | 0.00 | 78 | 1012.7 |
| 20260502105601 | 48 | 179 | 0.0 | 2.0 | 0.00 | 0.00 | 0.00 | 78 | 1012.5 |
| 20260502105100 | 48 | 0 | 0.0 | 2.0 | 0.00 | 0.00 | 0.00 | 78 | 1012.2 |
| 20260502104602 | 47 | 0 | 0.0 | 1.0 | 0.00 | 0.00 | 0.00 | 78 | 1012.2 |
| 20260502104100 | 47 | 0 | 0.0 | 0.0 | 0.00 | 0.00 | 0.00 | 79 | 1012.1 |
| 20260502103601 | 47 | 0 | 0.0 | 2.0 | 0.00 | 0.00 | 0.00 | 79 | 1012.1 |
| 20260502103108 | 46 | 0 | 0.0 | 2.0 | 0.00 | 0.00 | 0.00 | 80 | 1012.2 |
| 20260502102600 | 46 | 0 | 0.0 | 2.0 | 0.00 | 0.00 | 0.00 | 80 | 1012.3 |
| 20260502102057 | 46 | 0 | 0.0 | 0.0 | 0.00 | 0.00 | 0.00 | 81 | 1012.3 |
| 20260502101634 | 46 | 0 | 0.0 | 0.0 | 0.00 | 0.00 | 0.00 | 81 | 1012.1 |
| 20260502101101 | 46 | 0 | 0.0 | 0.0 | 0.00 | 0.00 | 0.00 | 81 | 1012.3 |
| 20260502100600 | 46 | 0 | 0.0 | 0.0 | 0.00 | 0.00 | 0.00 | 80 | 1012.1 |
| 20260502100120 | 46 | 0 | 0.0 | 0.0 | 0.00 | 0.00 | 0.00 | 81 | 1012.1 |
| 20260502091101 | 44 | 0 | 0.0 | 0.0 | 0.00 | 0.00 | 0.00 | 83 | 1011.9 |
| 20260502090557 | 44 | 0 | 0.0 | 0.0 | 0.00 | 0.00 | 0.00 | 83 | 1011.9 |
| 20260502080106 | 43 | 0 | 0.0 | 0.0 | 0.00 | 0.00 | 0.00 | 83 | 1012.0 |
| 20260502071059 | 45 | 0 | 0.0 | 0.0 | 0.00 | 0.00 | 0.00 | 81 | 1012.1 |
| 20260502070559 | 45 | 0 | 0.0 | 0.0 | 0.00 | 0.00 | 0.00 | 80 | 1012.1 |
| 20260502070100 | 45 | 0 | 0.0 | 0.0 | 0.00 | 0.00 | 0.00 | 80 | 1012.0 |
| 20260502065557 | 45 | 0 | 0.0 | 0.0 | 0.00 | 0.00 | 0.00 | 81 | 1012.0 |
| 20260502065103 | 45 | 0 | 0.0 | 0.0 | 0.00 | 0.00 | 0.00 | 80 | 1012.0 |
| 20260502064602 | 45 | 0 | 0.0 | 0.0 | 0.00 | 0.00 | 0.00 | 80 | 1012.0 |
| 20260502064058 | 45 | 0 | 0.0 | 0.0 | 0.00 | 0.00 | 0.00 | 81 | 1012.1 |
| 20260502063600 | 44 | 0 | 0.0 | 0.0 | 0.00 | 0.00 | 0.00 | 80 | 1012.2 |
| 20260502063059 | 44 | 0 | 0.0 | 0.0 | 0.00 | 0.00 | 0.00 | 80 | 1012.2 |
| 20260502062601 | 44 | 0 | 0.0 | 0.0 | 0.00 | 0.00 | 0.00 | 80 | 1012.1 |
| 20260502062101 | 44 | 0 | 0.0 | 0.0 | 0.00 | 0.00 | 0.00 | 81 | 1012.1 |
| 20260502061602 | 44 | 0 | 0.0 | 0.0 | 0.00 | 0.00 | 0.00 | 80 | 1012.1 |
| 20260502061057 | 43 | 0 | 0.0 | 0.0 | 0.00 | 0.00 | 0.00 | 80 | 1012.2 |
| 20260502060601 | 44 | 0 | 0.0 | 0.0 | 0.00 | 0.00 | 0.00 | 79 | 1012.3 |
| 20260502060106 | 44 | 0 | 0.0 | 0.0 | 0.00 | 0.00 | 0.00 | 79 | 1012.3 |
| 20260502055558 | 44 | 0 | 0.0 | 0.0 | 0.00 | 0.00 | 0.00 | 78 | 1012.4 |
| 20260502055100 | 44 | 0 | 0.0 | 0.0 | 0.00 | 0.00 | 0.00 | 78 | 1012.3 |
| 20260502054616 | 44 | 0 | 0.0 | 0.0 | 0.00 | 0.00 | 0.00 | 78 | 1012.2 |
| 20260502054100 | 44 | 0 | 0.0 | 0.0 | 0.00 | 0.00 | 0.00 | 77 | 1012.3 |
| 20260502053600 | 44 | 0 | 0.0 | 0.0 | 0.00 | 0.00 | 0.00 | 77 | 1012.3 |
| 20260502053116 | 44 | 0 | 0.0 | 0.0 | 0.00 | 0.00 | 0.00 | 76 | 1012.3 |
| 20260502052600 | 45 | 0 | 0.0 | 0.0 | 0.00 | 0.00 | 0.00 | 77 | 1012.3 |
| 20260502052101 | 45 | 0 | 0.0 | 0.0 | 0.00 | 0.00 | 0.00 | 76 | 1012.3 |
| 20260502051603 | 44 | 0 | 0.0 | 0.0 | 0.00 | 0.00 | 0.00 | 76 | 1012.4 |
| 20260502051058 | 45 | 0 | 0.0 | 0.0 | 0.00 | 0.00 | 0.00 | 76 | 1012.4 |
| 20260502050601 | 45 | 0 | 0.0 | 0.0 | 0.00 | 0.00 | 0.00 | 75 | 1012.5 |
| 20260502050101 | 45 | 0 | 0.0 | 0.0 | 0.00 | 0.00 | 0.00 | 74 | 1012.4 |
| 20260502045601 | 45 | 0 | 0.0 | 0.0 | 0.00 | 0.00 | 0.00 | 74 | 1012.5 |
| 20260502045101 | 45 | 0 | 0.0 | 0.0 | 0.00 | 0.00 | 0.00 | 74 | 1012.5 |
| 20260502044606 | 45 | 0 | 0.0 | 0.0 | 0.00 | 0.00 | 0.00 | 73 | 1012.5 |
| 20260502044059 | 45 | 0 | 0.0 | 0.0 | 0.00 | 0.00 | 0.00 | 73 | 1012.5 |
| 20260502043601 | 46 | 0 | 0.0 | 0.0 | 0.00 | 0.00 | 0.00 | 72 | 1012.5 |
| 20260502043108 | 45 | 0 | 0.0 | 0.0 | 0.00 | 0.00 | 0.00 | 72 | 1012.5 |
| 20260502042558 | 46 | 0 | 0.0 | 0.0 | 0.00 | 0.00 | 0.00 | 72 | 1012.4 |
| 20260502042059 | 46 | 0 | 0.0 | 0.0 | 0.00 | 0.00 | 0.00 | 72 | 1012.5 |
| 20260502041601 | 46 | 0 | 0.0 | 0.0 | 0.00 | 0.00 | 0.00 | 71 | 1012.3 |
| 20260502041100 | 46 | 0 | 0.0 | 0.0 | 0.00 | 0.00 | 0.00 | 71 | 1012.4 |
| 20260502040601 | 46 | 0 | 0.0 | 0.0 | 0.00 | 0.00 | 0.00 | 71 | 1012.4 |
| 20260502040101 | 46 | 0 | 0.0 | 0.0 | 0.00 | 0.00 | 0.00 | 70 | 1012.5 |
| 20260502035600 | 46 | 0 | 0.0 | 0.0 | 0.00 | 0.00 | 0.00 | 70 | 1012.5 |
| 20260502035103 | 46 | 0 | 0.0 | 0.0 | 0.00 | 0.00 | 0.00 | 69 | 1012.4 |
| 20260502034601 | 47 | 0 | 0.0 | 0.0 | 0.00 | 0.00 | 0.00 | 69 | 1012.4 |
| 20260502034101 | 47 | 0 | 0.0 | 0.0 | 0.00 | 0.00 | 0.00 | 69 | 1012.4 |
| 20260502033600 | 47 | 0 | 0.0 | 0.0 | 0.00 | 0.00 | 0.00 | 69 | 1012.3 |
| 20260502033106 | 47 | 0 | 0.0 | 0.0 | 0.00 | 0.00 | 0.00 | 69 | 1012.3 |
| 20260502032600 | 47 | 0 | 0.0 | 0.0 | 0.00 | 0.00 | 0.00 | 70 | 1012.3 |
| 20260502032057 | 47 | 0 | 0.0 | 0.0 | 0.00 | 0.00 | 0.00 | 69 | 1012.3 |
| 20260502031603 | 48 | 0 | 0.0 | 0.0 | 0.00 | 0.00 | 0.00 | 70 | 1012.3 |
| 20260502031100 | 48 | 0 | 0.0 | 0.0 | 0.00 | 0.00 | 0.00 | 69 | 1012.3 |
| 20260502030601 | 48 | 0 | 0.0 | 0.0 | 0.00 | 0.00 | 0.00 | 69 | 1012.2 |
| 20260502025600 | 49 | 0 | 0.0 | 1.0 | 0.00 | 0.00 | 0.00 | 66 | 1012.1 |
| 20260502025100 | 49 | 0 | 0.0 | 2.0 | 0.00 | 0.00 | 0.00 | 66 | 1012.1 |
| 20260502024600 | 48 | 0 | 0.0 | 2.0 | 0.00 | 0.00 | 0.00 | 68 | 1012.1 |
| 20260502024101 | 49 | 0 | 0.0 | 1.0 | 0.00 | 0.00 | 0.00 | 68 | 1012.2 |
| 20260502023603 | 49 | 0 | 0.0 | 2.0 | 0.00 | 0.00 | 0.00 | 66 | 1012.1 |
| 20260502023112 | 49 | 0 | 0.0 | 2.0 | 0.00 | 0.00 | 0.00 | 66 | 1012.1 |
| 20260502022558 | 49 | 0 | 0.0 | 2.0 | 0.00 | 0.00 | 0.00 | 67 | 1012.2 |
| 20260502022103 | 48 | 0 | 0.0 | 2.0 | 0.00 | 0.00 | 0.00 | 68 | 1012.1 |
| 20260502021601 | 48 | 0 | 0.0 | 2.0 | 0.00 | 0.00 | 0.00 | 68 | 1012.1 |
| 20260502021057 | 48 | 204 | 0.0 | 2.0 | 0.00 | 0.00 | 0.00 | 67 | 1012.1 |
| 20260502020558 | 48 | 204 | 0.0 | 2.0 | 0.00 | 0.00 | 0.00 | 68 | 1012.1 |
| 20260502015558 | 49 | 0 | 0.0 | 2.0 | 0.00 | 0.00 | 0.00 | 67 | 1012.0 |
| 20260502015102 | 49 | 0 | 0.0 | 2.0 | 0.00 | 0.00 | 0.00 | 66 | 1012.0 |
| 20260502014600 | 49 | 0 | 0.0 | 0.0 | 0.00 | 0.00 | 0.00 | 65 | 1012.1 |
| 20260502014059 | 49 | 0 | 0.0 | 0.0 | 0.00 | 0.00 | 0.00 | 63 | 1012.1 |
| 20260502013602 | 49 | 0 | 0.0 | 0.0 | 0.00 | 0.00 | 0.00 | 65 | 1012.1 |
| 20260502013101 | 49 | 0 | 0.0 | 0.0 | 0.00 | 0.00 | 0.00 | 61 | 1012.0 |
| 20260502012558 | 49 | 0 | 0.0 | 0.0 | 0.00 | 0.00 | 0.00 | 63 | 1012.0 |
| 20260502012057 | 49 | 0 | 0.0 | 0.0 | 0.00 | 0.00 | 0.00 | 62 | 1011.9 |
| 20260502011605 | 49 | 0 | 0.0 | 0.0 | 0.00 | 0.00 | 0.00 | 59 | 1011.8 |
| 20260502011058 | 49 | 0 | 0.0 | 0.0 | 0.00 | 0.00 | 0.00 | 59 | 1011.8 |
| 20260502010601 | 50 | 0 | 0.0 | 0.0 | 0.00 | 0.00 | 0.00 | 61 | 1011.8 |
| 20260502010059 | 51 | 0 | 0.0 | 0.0 | 0.00 | 0.00 | 0.00 | 62 | 1011.7 |
| 20260502005558 | 51 | 0 | 0.0 | 0.0 | 0.00 | 0.00 | 0.00 | 59 | 1011.6 |
| 20260502005058 | 51 | 0 | 0.0 | 0.0 | 0.00 | 0.00 | 0.00 | 55 | 1011.5 |
| 20260502004612 | 52 | 0 | 0.0 | 0.0 | 0.00 | 0.00 | 0.00 | 52 | 1011.4 |
| 20260502004057 | 52 | 0 | 0.0 | 0.0 | 0.00 | 0.00 | 0.00 | 52 | 1011.4 |
| 20260502003557 | 52 | 0 | 0.0 | 0.0 | 0.00 | 0.00 | 0.00 | 51 | 1011.3 |
| 20260502003101 | 52 | 0 | 0.0 | 0.0 | 0.00 | 0.00 | 0.00 | 50 | 1011.2 |
| 20260502002557 | 53 | 0 | 0.0 | 0.0 | 0.00 | 0.00 | 0.00 | 50 | 1011.2 |
| 20260502002059 | 53 | 0 | 0.0 | 0.0 | 0.00 | 0.00 | 0.00 | 49 | 1011.2 |
| 20260502001602 | 53 | 0 | 0.0 | 0.0 | 0.00 | 0.00 | 0.00 | 48 | 1011.1 |
| 20260502001100 | 54 | 0 | 0.0 | 1.0 | 0.00 | 0.00 | 0.00 | 47 | 1010.9 |
| 20260502000559 | 54 | 0 | 0.0 | 1.0 | 0.00 | 0.00 | 0.00 | 47 | 1010.8 |
| 20260502000105 | 55 | 0 | 0.0 | 2.0 | 0.00 | 0.00 | 0.00 | 45 | 1010.7 |
| 20260501235602 | 55 | 283 | 0.0 | 2.0 | 0.00 | 0.00 | 0.00 | 47 | 1010.7 |
| 20260501235058 | 55 | 283 | 0.0 | 1.0 | 0.00 | 0.00 | 0.00 | 50 | 1010.6 |
| 20260501234600 | 56 | 283 | 0.0 | 1.0 | 0.00 | 0.00 | 0.00 | 43 | 1010.5 |
| 20260501234058 | 57 | 283 | 0.0 | 1.0 | 0.00 | 0.00 | 0.00 | 39 | 1010.3 |
| 20260501233601 | 57 | 0 | 0.0 | 1.0 | 0.00 | 0.00 | 0.00 | 39 | 1010.3 |
| 20260501233101 | 58 | 0 | 0.0 | 3.0 | 0.00 | 0.00 | 0.00 | 41 | 1010.2 |
| 20260501232557 | 59 | 0 | 0.0 | 4.0 | 0.00 | 0.00 | 0.00 | 38 | 1010.0 |
| 20260501232057 | 60 | 271 | 1.0 | 4.0 | 0.00 | 0.00 | 0.00 | 34 | 1010.0 |
| 20260501231603 | 60 | 273 | 0.0 | 5.0 | 0.00 | 0.00 | 0.00 | 34 | 1009.9 |
| 20260501231059 | 60 | 246 | 1.0 | 5.0 | 0.00 | 0.00 | 0.00 | 32 | 1009.9 |
| 20260501230557 | 60 | 244 | 2.0 | 6.0 | 0.00 | 0.00 | 0.00 | 32 | 1009.8 |
| 20260501230101 | 60 | 325 | 0.0 | 8.0 | 0.00 | 0.00 | 0.00 | 34 | 1009.8 |
| 20260501225601 | 60 | 274 | 2.0 | 8.0 | 0.00 | 0.00 | 0.00 | 37 | 1009.8 |
| 20260501225059 | 60 | 324 | 0.0 | 3.0 | 0.00 | 0.00 | 0.00 | 34 | 1009.7 |
| 20260501224602 | 61 | 259 | 0.0 | 4.0 | 0.00 | 0.00 | 0.00 | 31 | 1009.6 |
| 20260501224058 | 61 | 275 | 1.0 | 8.0 | 0.00 | 0.00 | 0.00 | 30 | 1009.5 |
| 20260501223558 | 62 | 216 | 2.0 | 8.0 | 0.00 | 0.00 | 0.00 | 31 | 1009.5 |
| 20260501223110 | 62 | 360 | 3.0 | 8.0 | 0.00 | 0.00 | 0.00 | 30 | 1009.5 |
| 20260501222558 | 62 | 323 | 2.0 | 12.0 | 0.00 | 0.00 | 0.00 | 33 | 1009.6 |
| 20260501222058 | 62 | 285 | 4.0 | 12.0 | 0.00 | 0.00 | 0.00 | 30 | 1009.5 |
| 20260501221613 | 62 | 245 | 1.0 | 9.0 | 0.00 | 0.00 | 0.00 | 29 | 1009.5 |
| 20260501221057 | 62 | 265 | 3.0 | 8.0 | 0.00 | 0.00 | 0.00 | 29 | 1009.5 |
| 20260501220601 | 62 | 257 | 2.0 | 9.0 | 0.00 | 0.00 | 0.00 | 29 | 1009.4 |
| 20260501220058 | 62 | 283 | 2.0 | 9.0 | 0.00 | 0.00 | 0.00 | 29 | 1009.4 |
| 20260501215558 | 62 | 234 | 3.0 | 8.0 | 0.00 | 0.00 | 0.00 | 28 | 1009.3 |
| 20260501215100 | 62 | 276 | 2.0 | 8.0 | 0.00 | 0.00 | 0.00 | 29 | 1009.3 |
| 20260501214559 | 63 | 226 | 2.0 | 9.0 | 0.00 | 0.00 | 0.00 | 30 | 1009.3 |
| 20260501214101 | 62 | 283 | 4.0 | 9.0 | 0.00 | 0.00 | 0.00 | 30 | 1009.4 |
| 20260501213600 | 62 | 297 | 2.0 | 7.0 | 0.00 | 0.00 | 0.00 | 31 | 1009.2 |
| 20260501213114 | 63 | 190 | 2.0 | 9.0 | 0.00 | 0.00 | 0.00 | 31 | 1009.2 |
| 20260501212601 | 63 | 256 | 2.0 | 9.0 | 0.00 | 0.00 | 0.00 | 30 | 1009.3 |
| 20260501212059 | 63 | 274 | 4.0 | 9.0 | 0.00 | 0.00 | 0.00 | 30 | 1009.2 |
| 20260501211604 | 63 | 320 | 1.0 | 5.0 | 0.00 | 0.00 | 0.00 | 30 | 1009.1 |
| 20260501211058 | 63 | 306 | 1.0 | 10.0 | 0.00 | 0.00 | 0.00 | 31 | 1009.1 |
| 20260501210558 | 63 | 219 | 1.0 | 10.0 | 0.00 | 0.00 | 0.00 | 32 | 1009.1 |
| 20260501205600 | 63 | 245 | 2.0 | 13.0 | 0.00 | 0.00 | 0.00 | 31 | 1009.1 |
| 20260501205058 | 63 | 293 | 3.0 | 13.0 | 0.00 | 0.00 | 0.00 | 29 | 1009.1 |
| 20260501204600 | 63 | 223 | 3.0 | 15.0 | 0.00 | 0.00 | 0.00 | 30 | 1009.0 |
| 20260501204100 | 63 | 281 | 4.0 | 16.0 | 0.00 | 0.00 | 0.00 | 30 | 1008.9 |
| 20260501203600 | 63 | 259 | 4.0 | 16.0 | 0.00 | 0.00 | 0.00 | 30 | 1009.0 |
| 20260501203111 | 64 | 333 | 3.0 | 11.0 | 0.00 | 0.00 | 0.00 | 30 | 1009.0 |
| 20260501202559 | 63 | 222 | 3.0 | 10.0 | 0.00 | 0.00 | 0.00 | 32 | 1008.9 |
| 20260501202059 | 63 | 257 | 3.0 | 10.0 | 0.00 | 0.00 | 0.00 | 32 | 1008.9 |
| 20260501201612 | 63 | 326 | 1.0 | 13.0 | 0.00 | 0.00 | 0.00 | 33 | 1008.9 |
| 20260501201058 | 63 | 234 | 4.0 | 13.0 | 0.00 | 0.00 | 0.00 | 32 | 1008.9 |
| 20260501200559 | 63 | 229 | 4.0 | 13.0 | 0.00 | 0.00 | 0.00 | 34 | 1008.9 |
| 20260501200103 | 63 | 228 | 3.0 | 13.0 | 0.00 | 0.00 | 0.00 | 34 | 1008.9 |
| 20260501195600 | 63 | 223 | 2.0 | 10.0 | 0.00 | 0.00 | 0.00 | 33 | 1008.9 |
| 20260501195100 | 64 | 269 | 1.0 | 6.0 | 0.00 | 0.00 | 0.00 | 34 | 1008.9 |
| 20260501194604 | 63 | 290 | 2.0 | 12.0 | 0.00 | 0.00 | 0.00 | 33 | 1009.0 |
| 20260501194059 | 63 | 302 | 3.0 | 12.0 | 0.00 | 0.00 | 0.00 | 33 | 1009.1 |
| 20260501193559 | 63 | 312 | 5.0 | 12.0 | 0.00 | 0.00 | 0.00 | 34 | 1009.2 |
| 20260501193100 | 63 | 227 | 3.0 | 12.0 | 0.00 | 0.00 | 0.00 | 33 | 1009.1 |
| 20260501192559 | 63 | 247 | 4.0 | 17.0 | 0.00 | 0.00 | 0.00 | 34 | 1009.2 |
| 20260501192100 | 63 | 178 | 6.0 | 17.0 | 0.00 | 0.00 | 0.00 | 35 | 1009.1 |
| 20260501191600 | 63 | 313 | 5.0 | 12.0 | 0.00 | 0.00 | 0.00 | 34 | 1009.1 |
| 20260501191100 | 63 | 298 | 3.0 | 11.0 | 0.00 | 0.00 | 0.00 | 36 | 1009.1 |
| 20260501190558 | 62 | 271 | 3.0 | 12.0 | 0.00 | 0.00 | 0.00 | 35 | 1009.2 |
| 20260501190058 | 60 | 254 | 5.0 | 12.0 | 0.00 | 0.00 | 0.00 | 36 | 1009.1 |
| 20260501185602 | 62 | 246 | 3.0 | 9.0 | 0.00 | 0.00 | 0.00 | 39 | 1009.1 |
| 20260501185100 | 62 | 232 | 3.0 | 9.0 | 0.00 | 0.00 | 0.00 | 36 | 1009.2 |
| 20260501184609 | 63 | 276 | 2.0 | 12.0 | 0.00 | 0.00 | 0.00 | 35 | 1009.2 |
| 20260501184103 | 61 | 0 | 3.0 | 12.0 | 0.00 | 0.00 | 0.00 | 40 | 1009.2 |
| 20260501183558 | 62 | 261 | 3.0 | 12.0 | 0.00 | 0.00 | 0.00 | 37 | 1009.3 |
| 20260501183100 | 61 | 264 | 5.0 | 14.0 | 0.00 | 0.00 | 0.00 | 38 | 1009.2 |
| 20260501182600 | 60 | 315 | 5.0 | 14.0 | 0.00 | 0.00 | 0.00 | 39 | 1009.3 |
| 20260501182112 | 61 | 268 | 7.0 | 14.0 | 0.00 | 0.00 | 0.00 | 38 | 1009.4 |
| 20260501181611 | 62 | 282 | 2.0 | 9.0 | 0.00 | 0.00 | 0.00 | 38 | 1009.3 |
| 20260501181059 | 61 | 198 | 4.0 | 9.0 | 0.00 | 0.00 | 0.00 | 36 | 1009.4 |
| 20260501180603 | 62 | 238 | 4.0 | 11.0 | 0.00 | 0.00 | 0.00 | 37 | 1009.4 |
| 20260501175558 | 60 | 277 | 4.0 | 11.0 | 0.00 | 0.00 | 0.00 | 39 | 1009.5 |
| 20260501175102 | 61 | 256 | 3.0 | 11.0 | 0.00 | 0.00 | 0.00 | 39 | 1009.5 |
| 20260501174558 | 61 | 190 | 2.0 | 12.0 | 0.00 | 0.00 | 0.00 | 42 | 1009.5 |
| 20260501174100 | 60 | 274 | 5.0 | 12.0 | 0.00 | 0.00 | 0.00 | 39 | 1009.6 |
| 20260501173600 | 61 | 286 | 1.0 | 7.0 | 0.00 | 0.00 | 0.00 | 41 | 1009.5 |
| 20260501173115 | 60 | 5 | 2.0 | 7.0 | 0.00 | 0.00 | 0.00 | 43 | 1009.5 |
| 20260501172558 | 59 | 282 | 0.0 | 13.0 | 0.00 | 0.00 | 0.00 | 42 | 1009.6 |
| 20260501172058 | 59 | 241 | 2.0 | 13.0 | 0.00 | 0.00 | 0.00 | 42 | 1009.7 |
| 20260501171605 | 59 | 283 | 5.0 | 13.0 | 0.00 | 0.00 | 0.00 | 42 | 1009.7 |
| 20260501171059 | 59 | 360 | 2.0 | 11.0 | 0.00 | 0.00 | 0.00 | 42 | 1009.7 |
| 20260501170559 | 60 | 268 | 5.0 | 11.0 | 0.00 | 0.00 | 0.00 | 44 | 1009.8 |
| 20260501170101 | 59 | 267 | 1.0 | 9.0 | 0.00 | 0.00 | 0.00 | 45 | 1009.7 |
| 20260501165601 | 59 | 272 | 3.0 | 10.0 | 0.00 | 0.03 | 0.00 | 45 | 1009.7 |
| 20260501165103 | 58 | 180 | 4.0 | 10.0 | 0.00 | 0.03 | 0.00 | 45 | 1009.8 |
| 20260501164610 | 58 | 321 | 4.0 | 8.0 | 0.00 | 0.03 | 0.00 | 47 | 1009.9 |
| 20260501164058 | 58 | 119 | 2.0 | 8.0 | 0.00 | 0.03 | 0.00 | 47 | 1009.9 |
| 20260501163604 | 57 | 245 | 3.0 | 9.0 | 0.00 | 0.03 | 0.00 | 47 | 1010.1 |
| 20260501163101 | 58 | 292 | 1.0 | 10.0 | 0.00 | 0.03 | 0.00 | 46 | 1009.9 |
| 20260501162558 | 58 | 297 | 4.0 | 10.0 | 0.00 | 0.03 | 0.00 | 48 | 1010.0 |
| 20260501162100 | 57 | 0 | 3.0 | 10.0 | 0.00 | 0.03 | 0.00 | 48 | 1010.0 |
| 20260501161609 | 56 | 252 | 4.0 | 8.0 | 0.00 | 0.03 | 0.00 | 50 | 1010.1 |